#timestamp,LO_Frequency,Hit,StdDev 
1519189215.7,286047005.5,N
1519189235.5,286047005.2,N
1519189255.3,286047004.7,N
1519189275.2,286047006.8,N
1519189295.0,286047007.5,N
1519189295.9,286047007.5,N
1519189315.8,286047006.9,N
1519189335.6,286047008.4,N
1519189355.4,286047008.0,N
1519189375.3,286047008.1,N
1519189395.1,286047008.1,N
1519189415.9,286047009.2,N
1519189435.7,286047006.6,N
1519189455.5,286047009.0,N
1519189475.4,286047008.6,N
1519189495.2,286047010.7,N
1519189515.0,286047006.3,N
1519189515.9,286047006.3,N
1519189535.8,286047004.9,N
1519189555.6,286047008.7,N
1519189575.5,286047009.0,N
1519189595.3,286047007.9,N
1519189615.1,286047006.2,N
1519189635.9,286047007.7,Y
1519189655.7,286047001.4,P
1519189675.6,286047003.5,N
1519189695.4,286047002.0,N
1519189715.2,286047002.7,N
1519189735.1,286047000.6,N
1519189736.0,286047000.6,N
1519189755.8,286047001.1,N
1519189775.6,286047000.9,N
1519189795.5,286046999.5,N
1519189815.3,286046997.4,N
1519189835.2,286046999.4,N
1519189855.9,286046998.6,N
1519189875.7,286046998.3,N
1519189895.6,286046998.2,N
1519189915.4,286046997.6,N
1519189935.2,286046996.0,N
1519189955.1,286046994.3,N
1519189956.0,286046994.3,N
1519189975.8,286046993.7,N
1519189995.7,286046993.5,N
1519190015.5,286046994.9,N
1519190035.3,286046995.2,N
1519190055.2,286046997.9,N
1519190075.0,286046995.1,N
1519190075.9,286046995.1,N
1519190095.8,286046993.9,N
1519190115.6,286046993.8,N
1519190135.4,286046994.1,N
1519190155.3,286046992.2,N
1519190175.1,286046993.9,N
1519190195.9,286046995.9,N
1519190215.7,286046996.4,N
1519190235.5,286046997.4,N
1519190255.4,286046996.6,N
1519190275.2,286046998.9,N
1519190295.0,286046998.9,N
1519190295.9,286046998.9,N
1519190345.8,286046995.0,E
1519190355.7,286046996.6,N
1519190375.6,286046998.3,P
1519190395.4,286046998.7,N
1519190415.3,286047002.8,Y
1519190435.1,286047003.5,P
1519190436.0,286047003.5,N
1519190455.8,286047003.0,N
1519190475.7,286047003.5,N
1519190495.5,286047004.1,N
1519190515.3,286047006.0,N
1519190535.2,286047005.1,N
1519190555.0,286047005.9,N
1519190555.9,286047005.9,N
1519190575.8,286047003.0,N
1519190595.6,286047003.3,N
1519190615.4,286047004.8,N
1519190635.3,286047007.6,Y
1519190655.1,286047003.8,P
1519190675.9,286047003.6,P
1519190695.7,286047003.4,P
1519190715.5,286047003.3,Y
1519190735.4,286046998.2,P
1519190755.2,286047000.1,N
1519190775.0,286047000.7,N
1519190775.9,286047000.7,N
1519190795.8,286046999.3,N
1519190815.6,286046996.7,N
1519190835.5,286046999.6,N
1519190855.3,286046999.0,N
1519190875.1,286046998.2,N
1519190895.9,286046997.3,N
1519190915.7,286046995.8,N
1519190935.5,286046994.2,N
1519190955.4,286046991.7,Y
1519190975.2,286046991.7,P
1519190995.1,286046994.8,N
1519190996.0,286046994.8,N
1519191015.8,286046994.8,N
1519191035.6,286046994.2,N
1519191055.5,286046993.7,Y
1519191075.3,286047000.8,P
1519191095.2,286047002.3,N
1519191115.9,286047002.3,N
1519191135.7,286047003.8,N
1519191155.6,286047003.2,N
1519191175.4,286047002.2,N
1519191195.3,286047000.3,N
1519191215.1,286047001.2,N
1519191216.0,286047001.2,N
1519191235.8,286047002.5,N
1519191255.7,286047004.3,N
1519191275.5,286047001.8,N
1519191295.3,286047003.4,N
1519191315.2,286047004.8,N
1519191335.0,286047004.9,N
1519191335.9,286047004.9,N
1519191355.8,286047005.0,N
1519191375.6,286047003.4,N
1519191395.4,286047004.5,N
1519191415.3,286047006.5,N
1519191435.1,286047006.5,N
1519191455.8,286047006.1,N
1519191475.7,286047009.0,Y
1519191495.5,286047004.9,P
1519191515.4,286047004.8,P
1519191535.2,286047005.3,P
1519191555.0,286047003.4,Y
1519191555.9,286047003.4,P
1519191575.8,286046996.7,P
1519191595.6,286047001.1,N
1519191615.5,286047000.7,N
1519191635.3,286047000.8,N
1519191655.1,286047000.4,N
1519191675.9,286047000.3,N
1519191695.7,286047000.6,N
1519191715.5,286047000.1,N
1519191735.4,286047000.0,N
1519191755.2,286047000.1,N
1519191775.1,286047001.2,N
1519191776.0,286047001.2,N
1519191795.8,286046999.1,N
1519191815.6,286046997.5,N
1519191835.5,286046997.4,N
1519191855.3,286046996.8,N
1519191875.2,286046996.9,N
1519191895.9,286046997.0,N
1519191915.7,286046997.7,N
1519191935.6,286046996.8,N
1519191955.4,286046996.6,N
1519191975.2,286046997.2,N
1519191995.1,286046997.0,N
1519191996.0,286046997.0,N
1519192015.8,286046997.2,N
1519192035.7,286046998.4,N
1519192055.5,286047000.5,N
1519192075.3,286047002.6,N
1519192095.2,286047003.6,N
1519192115.0,286047000.3,N
1519192115.9,286047000.3,N
1519192135.8,286047000.8,N
1519192155.6,286046996.6,N
1519192175.4,286046995.0,N
1519192195.3,286046993.5,Y
1519192215.1,286046993.8,P
1519192235.9,286046993.3,N
1519192255.7,286046990.2,P
1519192275.5,286046991.4,N
1519192295.4,286046991.4,N
1519192315.2,286046988.6,Y
1519192335.0,286046995.4,P
1519192335.9,286046995.4,P
1519192355.8,286046996.8,P
1519192375.6,286046999.0,N
1519192395.5,286047001.1,N
1519192415.3,286047000.8,N
1519192435.1,286047002.5,N
1519192455.9,286047000.6,N
1519192475.7,286047002.5,N
1519192495.6,286047002.6,N
1519192515.4,286047000.2,N
1519192535.2,286047000.1,N
1519192555.1,286047001.6,N
1519192556.0,286047001.6,N
1519192575.8,286047004.4,N
1519192595.6,286047001.5,N
1519192615.5,286047001.4,N
1519192635.3,286047003.7,N
1519192655.2,286047002.5,N
1519192675.9,286047004.4,N
1519192695.7,286047004.3,N
1519192715.6,286047002.3,N
1519192735.4,286047001.5,N
1519192755.2,286047004.2,N
1519192775.1,286047004.1,N
1519192776.0,286047004.1,N
1519192795.8,286047003.0,N
